Location: Caltech
(34.1382°N, 118.1253°W)
Time: 21:02:07
(UTC-07:00)

UOSAT-12 - Visible Passes

Search period start: 28 May 2015 00:00
Search period end: 07 June 2015 00:00
Orbit: 597 x 658 km, 64.6° (Epoch: 28 May)

Date Brightness Start Highest point End Pass type
(mag) Time Alt. Az. Time Alt. Az. Time Alt. Az.
28 May 7.5 04:01:11 28° S 04:03:31 60° ESE 04:08:09 10° NE visible
29 May 9.6 02:43:42 13° ESE 02:43:53 13° ESE 02:46:02 10° E visible
29 May 7.4 04:21:01 25° SW 04:23:36 57° WNW 04:28:15 10° NNE visible
30 May 8.4 03:03:29 30° ESE 03:03:46 30° ESE 03:07:54 10° NE visible
30 May 8.5 04:40:48 14° WSW 04:43:55 26° NW 04:47:50 10° N visible
31 May 7.1 03:23:12 65° SSE 03:23:44 74° ESE 03:28:27 10° NNE visible
31 May 9.4 05:02:14 10° WNW 05:04:28 13° NW 05:06:32 10° NNW visible
01 Jun 9.6 02:05:33 14° E 02:05:33 14° E 02:06:58 10° ENE visible
01 Jun 7.7 03:42:52 40° W 03:43:53 47° WNW 03:48:26 10° NNE visible
02 Jun 8.6 02:25:10 32° E 02:25:10 32° E 02:28:19 10° NE visible
02 Jun 8.8 04:02:28 18° W 04:04:15 22° NW 04:07:52 10° N visible
03 Jun 7.5 02:44:43 64° NNE 02:44:43 64° NNE 02:48:42 10° NNE visible
03 Jun 9.6 04:23:33 10° WNW 04:24:52 11° NW 04:25:57 10° NNW visible
04 Jun 9.8 01:26:55 13° ENE 01:26:55 13° ENE 01:27:40 10° ENE visible
04 Jun 8.0 03:04:13 39° NW 03:04:13 39° NW 03:08:34 10° NNE visible
05 Jun 9.0 01:46:22 27° ENE 01:46:22 27° ENE 01:48:42 10° NE visible
05 Jun 9.0 03:23:40 18° WNW 03:24:35 19° NW 03:27:51 10° N visible
06 Jun 8.3 02:05:47 41° NNE 02:05:47 41° NNE 02:08:56 10° NNE visible
